SWA630 KSNA-MMSD

Flight info

Callsign SWA630
Flight time 1h 53m
Altitude 39000
Route STAYY4 OTAYY DCT TIJ UT6 IMUSU UT25 LTO DCT ENEKO ENEKO1A
Aircraft B737/M-SDE2E3GIJ4RWZ/LB1D1

Departure

Time 2026-04-23 17:53
Airport John Wayne Orange County International Airport (KSNA)

Arrival

Time 2026-04-23 19:46
Airport Los Cabos International Airport (MMSD)
Time Latitude Longitude Altitude Speed Heading
2026-04-23 17:32 33.67607 -117.86434 49 ft 0 kts 118°
2026-04-23 17:46 33.67622 -117.86467 45 ft 4 kts 117°
2026-04-23 17:46 33.67631 -117.86495 48 ft 4 kts 80°
2026-04-23 17:46 33.67618 -117.86518 48 ft 4 kts 30°
2026-04-23 17:47 33.67607 -117.86525 49 ft 1 kts 27°
2026-04-23 17:47 33.67606 -117.86526 49 ft 0 kts 27°
2026-04-23 17:49 33.67606 -117.86525 49 ft 0 kts 27°
2026-04-23 17:49 33.67640 -117.86504 49 ft 11 kts 27°
2026-04-23 17:50 33.67708 -117.86461 50 ft 11 kts 27°
2026-04-23 17:50 33.67871 -117.86358 50 ft 14 kts 28°
2026-04-23 17:50 33.67959 -117.86302 50 ft 15 kts 28°
2026-04-23 17:51 33.68054 -117.86283 47 ft 15 kts 324°
2026-04-23 17:51 33.68101 -117.86388 51 ft 14 kts 297°
2026-04-23 17:51 33.68132 -117.86530 49 ft 0 kts 205°
2026-04-23 17:52 33.68024 -117.86592 50 ft 62 kts 206°
2026-04-23 17:52 33.67340 -117.87033 63 ft 157 kts 207°
2026-04-23 17:53 33.65323 -117.88204 2463 ft 164 kts 204°
2026-04-23 17:53 33.64132 -117.88705 2818 ft 187 kts 192°
2026-04-23 17:53 33.62826 -117.88887 2866 ft 193 kts 184°
2026-04-23 17:54 33.61437 -117.89027 2829 ft 201 kts 187°
2026-04-23 17:54 33.60064 -117.89367 2975 ft 205 kts 195°
2026-04-23 17:54 33.57169 -117.90069 3025 ft 225 kts 168°
2026-04-23 17:55 33.54150 -117.88173 4269 ft 265 kts 148°
2026-04-23 17:55 33.52522 -117.87081 5364 ft 270 kts 150°
2026-04-23 17:55 33.50944 -117.85824 6346 ft 278 kts 132°
2026-04-23 17:56 33.49882 -117.83866 7240 ft 285 kts 115°
2026-04-23 17:56 33.48205 -117.79430 9094 ft 300 kts 115°
2026-04-23 17:56 33.47570 -117.77017 9939 ft 311 kts 94°
2026-04-23 17:57 33.47657 -117.74383 10544 ft 328 kts 83°
2026-04-23 17:57 33.47905 -117.71539 10778 ft 357 kts 81°
2026-04-23 17:57 33.49843 -117.65969 12255 ft 370 kts 56°
2026-04-23 17:58 33.51169 -117.63286 12814 ft 378 kts 56°
2026-04-23 17:58 33.52516 -117.60542 13633 ft 384 kts 56°
2026-04-23 17:58 33.53862 -117.57752 14498 ft 388 kts 56°
2026-04-23 17:58 33.55209 -117.54929 15288 ft 393 kts 57°
2026-04-23 17:59 33.56555 -117.52081 16038 ft 400 kts 59°
2026-04-23 17:59 33.57458 -117.48881 16751 ft 414 kts 81°
2026-04-23 17:59 33.57400 -117.45422 17536 ft 420 kts 102°
2026-04-23 17:59 33.56511 -117.42070 18251 ft 425 kts 112°
2026-04-23 18:00 33.55421 -117.38758 18902 ft 429 kts 114°
2026-04-23 18:00 33.54301 -117.35417 19585 ft 433 kts 114°
2026-04-23 18:00 33.53206 -117.32035 20335 ft 436 kts 113°
2026-04-23 18:00 33.52131 -117.28626 21007 ft 440 kts 113°
2026-04-23 18:01 33.50822 -117.25312 21594 ft 440 kts 129°
2026-04-23 18:01 33.48756 -117.22663 22249 ft 433 kts 147°
2026-04-23 18:01 33.46211 -117.20835 22945 ft 425 kts 161°
2026-04-23 18:01 33.43513 -117.19392 23627 ft 426 kts 163°
2026-04-23 18:02 33.40771 -117.17984 24157 ft 430 kts 163°
2026-04-23 18:02 33.38019 -117.16560 24693 ft 433 kts 163°
2026-04-23 18:02 33.35286 -117.15114 25224 ft 436 kts 162°
2026-04-23 18:02 33.32481 -117.13605 25813 ft 437 kts 162°
2026-04-23 18:03 33.29736 -117.12120 26388 ft 439 kts 163°
2026-04-23 18:03 33.26921 -117.10728 26864 ft 434 kts 172°
2026-04-23 18:03 33.23992 -117.10264 27367 ft 420 kts 187°
2026-04-23 18:03 33.21075 -117.10319 27941 ft 419 kts 189°
2026-04-23 18:04 33.18162 -117.10423 28467 ft 419 kts 189°
2026-04-23 18:04 33.15232 -117.10532 28950 ft 422 kts 189°
2026-04-23 18:04 33.12288 -117.10629 29398 ft 424 kts 189°
2026-04-23 18:04 33.09326 -117.10712 29887 ft 426 kts 188°
2026-04-23 18:05 33.06389 -117.10782 30331 ft 427 kts 188°
2026-04-23 18:05 33.03409 -117.10847 30728 ft 429 kts 188°
2026-04-23 18:05 33.00427 -117.10909 31057 ft 431 kts 188°
2026-04-23 18:05 32.97411 -117.10970 31369 ft 434 kts 188°
2026-04-23 18:06 32.94380 -117.11031 31737 ft 435 kts 189°
2026-04-23 18:06 32.91767 -117.11083 32147 ft 433 kts 189°
2026-04-23 18:06 32.88765 -117.11141 32668 ft 430 kts 189°
2026-04-23 18:06 32.85780 -117.11201 33141 ft 428 kts 189°
2026-04-23 18:07 32.82809 -117.11262 33557 ft 427 kts 189°
2026-04-23 18:07 32.79880 -117.11324 33940 ft 426 kts 189°
2026-04-23 18:07 32.76919 -117.11385 34303 ft 425 kts 190°
2026-04-23 18:07 32.73962 -117.11446 34663 ft 423 kts 190°
2026-04-23 18:08 32.72011 -117.11485 34904 ft 422 kts 190°
2026-04-23 18:08 32.68041 -117.10936 35300 ft 447 kts 172°
2026-04-23 18:08 32.65155 -117.09366 35575 ft 466 kts 158°
2026-04-23 18:08 32.62611 -117.06834 35920 ft 487 kts 143°
2026-04-23 18:09 32.60351 -117.03832 36218 ft 490 kts 141°
2026-04-23 18:09 32.58123 -117.00750 36393 ft 492 kts 141°
2026-04-23 18:09 32.55888 -116.97743 36566 ft 493 kts 142°
2026-04-23 18:09 32.53556 -116.94786 36851 ft 486 kts 147°
2026-04-23 18:10 32.51033 -116.92189 37123 ft 477 kts 152°
2026-04-23 18:10 32.48451 -116.89729 37387 ft 475 kts 153°
2026-04-23 18:10 32.45850 -116.87301 37610 ft 476 kts 154°
2026-04-23 18:10 32.43246 -116.84866 37777 ft 478 kts 154°
2026-04-23 18:11 32.40643 -116.82408 37940 ft 480 kts 154°
2026-04-23 18:11 32.38040 -116.79925 38172 ft 481 kts 154°
2026-04-23 18:11 32.35447 -116.77434 38437 ft 480 kts 154°
2026-04-23 18:11 32.32863 -116.74944 38702 ft 479 kts 154°
2026-04-23 18:12 32.30282 -116.72457 38916 ft 478 kts 154°
2026-04-23 18:12 32.27698 -116.69974 39049 ft 479 kts 154°
2026-04-23 18:12 32.25103 -116.67486 39035 ft 480 kts 154°
2026-04-23 18:13 32.19941 -116.62538 39054 ft 481 kts 154°
2026-04-23 18:13 32.14752 -116.57570 39065 ft 480 kts 154°
2026-04-23 18:14 32.09612 -116.52502 39062 ft 481 kts 153°
2026-04-23 18:14 32.04530 -116.47413 39052 ft 478 kts 153°
2026-04-23 18:15 31.99451 -116.42352 39070 ft 478 kts 154°
2026-04-23 18:15 31.94388 -116.37337 39065 ft 478 kts 154°
2026-04-23 18:16 31.89287 -116.32293 39054 ft 479 kts 154°
2026-04-23 18:16 31.84180 -116.27247 39038 ft 478 kts 154°
2026-04-23 18:17 31.76554 -116.19724 39056 ft 479 kts 154°
2026-04-23 18:17 31.71403 -116.14777 39054 ft 475 kts 157°
2026-04-23 18:18 31.66140 -116.10123 39057 ft 473 kts 158°
2026-04-23 18:18 31.60866 -116.05512 39042 ft 473 kts 158°
2026-04-23 18:19 31.55605 -116.00866 39035 ft 474 kts 157°
2026-04-23 18:19 31.50355 -115.96203 39046 ft 473 kts 157°
2026-04-23 18:20 31.45105 -115.91541 39005 ft 473 kts 158°
2026-04-23 18:20 31.39872 -115.86902 39031 ft 472 kts 157°
2026-04-23 18:21 31.34628 -115.82263 39043 ft 473 kts 157°
2026-04-23 18:21 31.29369 -115.77618 39047 ft 473 kts 157°
2026-04-23 18:22 31.24114 -115.72982 39045 ft 473 kts 158°
2026-04-23 18:22 31.18856 -115.68349 39035 ft 474 kts 157°
2026-04-23 18:23 31.10985 -115.61428 39064 ft 474 kts 157°
2026-04-23 18:24 31.03060 -115.54475 39044 ft 475 kts 157°
2026-04-23 18:25 30.95147 -115.47541 39025 ft 473 kts 157°
2026-04-23 18:25 30.89886 -115.42941 39040 ft 471 kts 157°
2026-04-23 18:26 30.84671 -115.38389 39042 ft 471 kts 157°
2026-04-23 18:26 30.79433 -115.33804 39045 ft 473 kts 156°
2026-04-23 18:27 30.74242 -115.29041 39044 ft 477 kts 155°
2026-04-23 18:27 30.69064 -115.24213 39013 ft 476 kts 155°
2026-04-23 18:28 30.63904 -115.19423 39022 ft 475 kts 155°
2026-04-23 18:28 30.58763 -115.14684 39000 ft 473 kts 155°
2026-04-23 18:29 30.53605 -115.09946 39032 ft 473 kts 155°
2026-04-23 18:29 30.48418 -115.05193 39028 ft 477 kts 155°
2026-04-23 18:30 30.43190 -115.00406 39034 ft 480 kts 155°
2026-04-23 18:30 30.37935 -114.95599 38975 ft 483 kts 155°
2026-04-23 18:31 30.32643 -114.90763 38987 ft 487 kts 154°
2026-04-23 18:31 30.27328 -114.85908 39005 ft 486 kts 155°
2026-04-23 18:32 30.22054 -114.81096 39010 ft 484 kts 155°
2026-04-23 18:32 30.16778 -114.76291 39010 ft 481 kts 155°
2026-04-23 18:33 30.12379 -114.72291 39004 ft 479 kts 154°
2026-04-23 18:33 30.07174 -114.67570 39014 ft 478 kts 154°
2026-04-23 18:34 30.01941 -114.62830 39001 ft 478 kts 155°
2026-04-23 18:34 29.96720 -114.58102 39004 ft 475 kts 155°
2026-04-23 18:35 29.91527 -114.53405 39015 ft 473 kts 154°
2026-04-23 18:35 29.86344 -114.48730 39015 ft 473 kts 154°
2026-04-23 18:36 29.81136 -114.44040 39013 ft 475 kts 155°
2026-04-23 18:36 29.75915 -114.39343 39014 ft 476 kts 154°
2026-04-23 18:37 29.70714 -114.34667 38978 ft 478 kts 154°
2026-04-23 18:37 29.65477 -114.29963 39000 ft 478 kts 154°
2026-04-23 18:38 29.60230 -114.25256 39018 ft 478 kts 154°
2026-04-23 18:38 29.54974 -114.20553 39014 ft 480 kts 154°
2026-04-23 18:39 29.49693 -114.15831 39010 ft 481 kts 154°
2026-04-23 18:39 29.44448 -114.11146 39000 ft 481 kts 154°
2026-04-23 18:40 29.39180 -114.06445 39014 ft 479 kts 154°
2026-04-23 18:40 29.33949 -114.01780 39030 ft 474 kts 154°
2026-04-23 18:41 29.28725 -113.97139 39024 ft 475 kts 154°
2026-04-23 18:41 29.23486 -113.92492 39006 ft 477 kts 154°
2026-04-23 18:42 29.18234 -113.87831 39024 ft 478 kts 154°
2026-04-23 18:42 29.12970 -113.83166 39013 ft 479 kts 154°
2026-04-23 18:43 29.07680 -113.78486 39021 ft 480 kts 154°
2026-04-23 18:43 29.02434 -113.73850 38992 ft 480 kts 154°
2026-04-23 18:44 28.97141 -113.69177 39017 ft 481 kts 154°
2026-04-23 18:44 28.91840 -113.64503 39022 ft 481 kts 154°
2026-04-23 18:45 28.86543 -113.59836 39019 ft 481 kts 154°
2026-04-23 18:45 28.81246 -113.55176 38999 ft 480 kts 154°
2026-04-23 18:46 28.75979 -113.50544 39007 ft 476 kts 153°
2026-04-23 18:46 28.70737 -113.45945 39003 ft 475 kts 154°
2026-04-23 18:47 28.65532 -113.41386 38987 ft 474 kts 153°
2026-04-23 18:47 28.60310 -113.36818 39003 ft 473 kts 153°
2026-04-23 18:48 28.55082 -113.32250 38991 ft 474 kts 153°
2026-04-23 18:48 28.49848 -113.27683 38990 ft 474 kts 154°
2026-04-23 18:49 28.44625 -113.23128 38995 ft 473 kts 153°
2026-04-23 18:49 28.39405 -113.18588 39013 ft 472 kts 154°
2026-04-23 18:50 28.35061 -113.14811 39015 ft 474 kts 154°
2026-04-23 18:50 28.28947 -113.09503 38991 ft 476 kts 153°
2026-04-23 18:51 28.23669 -113.04924 39002 ft 478 kts 153°
2026-04-23 18:51 28.18385 -113.00345 39007 ft 477 kts 153°
2026-04-23 18:52 28.13104 -112.95774 39011 ft 478 kts 153°
2026-04-23 18:52 28.07799 -112.91192 39000 ft 479 kts 153°
2026-04-23 18:53 28.02510 -112.86625 39010 ft 477 kts 153°
2026-04-23 18:53 27.97223 -112.82069 38990 ft 477 kts 153°
2026-04-23 18:54 27.91970 -112.77549 39008 ft 477 kts 153°
2026-04-23 18:54 27.86688 -112.73008 38980 ft 476 kts 153°
2026-04-23 18:55 27.81422 -112.68486 38984 ft 475 kts 152°
2026-04-23 18:55 27.76160 -112.63974 38987 ft 474 kts 153°
2026-04-23 18:56 27.71787 -112.60228 38986 ft 474 kts 153°
2026-04-23 18:56 27.65636 -112.54967 38987 ft 474 kts 153°
2026-04-23 18:57 27.60378 -112.50476 38974 ft 474 kts 152°
2026-04-23 18:57 27.55120 -112.45989 38982 ft 474 kts 152°
2026-04-23 18:58 27.49893 -112.41536 38970 ft 474 kts 152°
2026-04-23 18:58 27.44626 -112.37051 38979 ft 475 kts 152°
2026-04-23 18:59 27.39348 -112.32562 38984 ft 475 kts 152°
2026-04-23 18:59 27.34054 -112.28068 38967 ft 477 kts 152°
2026-04-23 19:00 27.28616 -112.23901 38986 ft 470 kts 158°
2026-04-23 19:00 27.23004 -112.20116 38980 ft 471 kts 158°
2026-04-23 19:01 27.17366 -112.16321 38973 ft 473 kts 158°
2026-04-23 19:01 27.11741 -112.12469 38961 ft 474 kts 157°
2026-04-23 19:02 27.07069 -112.09248 38965 ft 474 kts 157°
2026-04-23 19:02 27.00537 -112.04747 38964 ft 474 kts 157°
2026-04-23 19:03 26.94912 -112.00880 38978 ft 474 kts 157°
2026-04-23 19:03 26.89286 -111.97019 38964 ft 475 kts 157°
2026-04-23 19:04 26.83653 -111.93155 38954 ft 473 kts 157°
2026-04-23 19:04 26.78034 -111.89306 38953 ft 472 kts 157°
2026-04-23 19:05 26.72476 -111.85503 38958 ft 471 kts 157°
2026-04-23 19:05 26.66886 -111.81685 38964 ft 470 kts 157°
2026-04-23 19:06 26.61302 -111.77872 38937 ft 470 kts 157°
2026-04-23 19:06 26.55718 -111.74064 38954 ft 469 kts 157°
2026-04-23 19:07 26.50134 -111.70259 38980 ft 470 kts 157°
2026-04-23 19:07 26.44535 -111.66448 38976 ft 471 kts 157°
2026-04-23 19:08 26.38971 -111.62665 38975 ft 472 kts 157°
2026-04-23 19:08 26.33361 -111.58854 38975 ft 471 kts 156°
2026-04-23 19:09 26.27756 -111.55051 38972 ft 472 kts 156°
2026-04-23 19:09 26.22139 -111.51244 38975 ft 472 kts 156°
2026-04-23 19:10 26.16521 -111.47442 38986 ft 472 kts 156°
2026-04-23 19:10 26.10905 -111.43645 38980 ft 472 kts 156°
2026-04-23 19:11 26.05323 -111.39873 38966 ft 472 kts 156°
2026-04-23 19:11 25.99716 -111.36077 38999 ft 472 kts 154°
2026-04-23 19:12 25.95454 -111.32139 39005 ft 486 kts 141°
2026-04-23 19:12 25.90044 -111.25708 38999 ft 488 kts 139°
2026-04-23 19:13 25.85466 -111.20202 38975 ft 487 kts 139°
2026-04-23 19:13 25.80834 -111.14716 38973 ft 486 kts 140°
2026-04-23 19:14 25.76186 -111.09266 38958 ft 486 kts 140°
2026-04-23 19:14 25.71534 -111.03828 38969 ft 485 kts 140°
2026-04-23 19:15 25.66886 -110.98400 38958 ft 485 kts 140°
2026-04-23 19:15 25.62235 -110.92972 38962 ft 485 kts 140°
2026-04-23 19:16 25.57586 -110.87551 38956 ft 484 kts 139°
2026-04-23 19:16 25.52941 -110.82141 38956 ft 484 kts 139°
2026-04-23 19:17 25.45995 -110.74065 38960 ft 485 kts 139°
2026-04-23 19:17 25.41335 -110.68655 38957 ft 485 kts 139°
2026-04-23 19:18 25.36672 -110.63247 38942 ft 486 kts 139°
2026-04-23 19:18 25.32029 -110.57869 38956 ft 486 kts 139°
2026-04-23 19:19 25.25784 -110.50645 38959 ft 486 kts 139°
2026-04-23 19:20 25.18800 -110.42581 38955 ft 486 kts 139°
2026-04-23 19:20 25.14118 -110.37181 38961 ft 486 kts 139°
2026-04-23 19:21 25.07089 -110.29088 38955 ft 486 kts 139°
2026-04-23 19:22 25.02409 -110.23708 38960 ft 486 kts 139°
2026-04-23 19:22 24.95417 -110.15681 38961 ft 485 kts 139°
2026-04-23 19:23 24.90734 -110.10313 38955 ft 485 kts 139°
2026-04-23 19:24 24.83707 -110.02270 38812 ft 488 kts 139°
2026-04-23 19:24 24.81327 -109.99553 38167 ft 493 kts 139°
2026-04-23 19:24 24.76626 -109.94181 36876 ft 489 kts 139°
2026-04-23 19:25 24.71913 -109.88800 35502 ft 488 kts 139°
2026-04-23 19:25 24.67166 -109.83393 33890 ft 493 kts 138°
2026-04-23 19:26 24.62376 -109.77943 32051 ft 498 kts 138°
2026-04-23 19:26 24.59971 -109.75207 31354 ft 495 kts 138°
2026-04-23 19:27 24.55233 -109.69816 30106 ft 487 kts 138°
2026-04-23 19:27 24.48298 -109.61945 28064 ft 472 kts 137°
2026-04-23 19:28 24.43775 -109.56819 26794 ft 462 kts 137°
2026-04-23 19:28 24.39339 -109.51799 25552 ft 454 kts 137°
2026-04-23 19:29 24.37144 -109.49317 24907 ft 451 kts 137°
2026-04-23 19:29 24.32457 -109.44929 23649 ft 438 kts 158°
2026-04-23 19:30 24.26690 -109.43778 22543 ft 410 kts 189°
2026-04-23 19:30 24.23921 -109.44311 21988 ft 401 kts 197°
2026-04-23 19:30 24.18560 -109.45742 20667 ft 398 kts 198°
2026-04-23 19:31 24.15878 -109.46470 20044 ft 396 kts 197°
2026-04-23 19:31 24.13208 -109.47180 19451 ft 394 kts 197°
2026-04-23 19:31 24.10550 -109.47872 18877 ft 391 kts 197°
2026-04-23 19:31 24.07900 -109.48554 18313 ft 389 kts 197°
2026-04-23 19:32 24.05268 -109.49227 17691 ft 387 kts 197°
2026-04-23 19:32 24.02655 -109.49892 17149 ft 382 kts 196°
2026-04-23 19:32 24.00082 -109.50547 16626 ft 377 kts 196°
2026-04-23 19:32 23.97539 -109.51195 16118 ft 373 kts 196°
2026-04-23 19:33 23.95031 -109.51833 15608 ft 368 kts 196°
2026-04-23 19:33 23.92546 -109.52466 15109 ft 364 kts 196°
2026-04-23 19:33 23.87758 -109.53882 14152 ft 354 kts 201°
2026-04-23 19:34 23.85445 -109.54752 13660 ft 349 kts 202°
2026-04-23 19:34 23.83166 -109.55633 13112 ft 346 kts 202°
2026-04-23 19:34 23.78674 -109.57351 12053 ft 339 kts 202°
2026-04-23 19:35 23.76471 -109.58178 11751 ft 329 kts 201°
2026-04-23 19:35 23.74357 -109.58964 11650 ft 313 kts 202°
2026-04-23 19:35 23.72340 -109.59710 11542 ft 298 kts 201°
2026-04-23 19:35 23.70427 -109.60416 11381 ft 282 kts 202°
2026-04-23 19:36 23.68593 -109.61093 10903 ft 277 kts 202°
2026-04-23 19:36 23.66770 -109.61768 10358 ft 275 kts 202°
2026-04-23 19:36 23.64962 -109.62436 9855 ft 273 kts 202°
2026-04-23 19:36 23.63174 -109.63096 9308 ft 270 kts 202°
2026-04-23 19:37 23.61409 -109.63748 8829 ft 272 kts 201°
2026-04-23 19:37 23.59628 -109.64405 8556 ft 266 kts 201°
2026-04-23 19:37 23.57887 -109.65045 8025 ft 264 kts 201°
2026-04-23 19:37 23.56135 -109.65691 7429 ft 265 kts 201°
2026-04-23 19:38 23.54389 -109.66333 6911 ft 264 kts 201°
2026-04-23 19:38 23.52662 -109.66968 6443 ft 261 kts 200°
2026-04-23 19:38 23.50945 -109.67600 5939 ft 258 kts 200°
2026-04-23 19:38 23.49267 -109.68217 5585 ft 250 kts 200°
2026-04-23 19:39 23.47639 -109.68815 5256 ft 243 kts 200°
2026-04-23 19:39 23.46055 -109.69397 4943 ft 239 kts 200°
2026-04-23 19:39 23.44495 -109.69970 4647 ft 240 kts 200°
2026-04-23 19:39 23.42911 -109.70552 4312 ft 240 kts 200°
2026-04-23 19:40 23.41353 -109.71124 4186 ft 232 kts 199°
2026-04-23 19:40 23.39864 -109.71671 4088 ft 220 kts 199°
2026-04-23 19:40 23.38453 -109.72189 3949 ft 210 kts 199°
2026-04-23 19:40 23.37101 -109.72685 3850 ft 202 kts 199°
2026-04-23 19:41 23.35787 -109.73167 3787 ft 196 kts 199°
2026-04-23 19:41 23.34504 -109.73637 3698 ft 190 kts 199°
2026-04-23 19:41 23.33261 -109.74026 3468 ft 182 kts 186°
2026-04-23 19:41 23.32020 -109.74002 3329 ft 173 kts 175°
2026-04-23 19:42 23.30843 -109.73861 3192 ft 169 kts 174°
2026-04-23 19:42 23.29667 -109.73722 2962 ft 169 kts 174°
2026-04-23 19:42 23.28511 -109.73589 2747 ft 165 kts 173°
2026-04-23 19:42 23.27389 -109.73461 2529 ft 160 kts 173°
2026-04-23 19:43 23.26278 -109.73335 2322 ft 162 kts 172°
2026-04-23 19:43 23.25146 -109.73205 2101 ft 164 kts 172°
2026-04-23 19:43 23.24073 -109.73082 1884 ft 152 kts 173°
2026-04-23 19:43 23.23087 -109.72971 1695 ft 136 kts 172°
2026-04-23 19:44 23.22162 -109.72865 1510 ft 134 kts 172°
2026-04-23 19:44 23.21211 -109.72755 1380 ft 138 kts 172°
2026-04-23 19:44 23.20262 -109.72648 1194 ft 134 kts 172°
2026-04-23 19:44 23.19343 -109.72547 961 ft 130 kts 172°
2026-04-23 19:45 23.18463 -109.72442 777 ft 127 kts 172°
2026-04-23 19:45 23.17572 -109.72353 586 ft 129 kts 169°
2026-04-23 19:45 23.16676 -109.72244 455 ft 130 kts 169°
2026-04-23 19:45 23.15800 -109.72141 376 ft 120 kts 173°
2026-04-23 19:46 23.15126 -109.72066 350 ft 67 kts 176°
2026-04-23 19:46 23.14911 -109.71950 343 ft 28 kts 142°
2026-04-23 19:46 23.14833 -109.71854 340 ft 11 kts 64°
2026-04-23 19:46 23.14895 -109.71834 349 ft 9 kts 350°
2026-04-23 19:47 23.14938 -109.71841 348 ft 9 kts 350°
2026-04-23 19:47 23.15023 -109.71849 347 ft 9 kts 355°
2026-04-23 19:47 23.15092 -109.71857 353 ft 11 kts 354°
2026-04-23 19:47 23.15190 -109.71869 352 ft 15 kts 354°
2026-04-23 19:48 23.15303 -109.71882 356 ft 17 kts 354°
2026-04-23 19:48 23.15430 -109.71898 357 ft 19 kts 354°
2026-04-23 19:48 23.15563 -109.71913 363 ft 19 kts 354°
2026-04-23 19:48 23.15691 -109.71926 364 ft 18 kts 355°
2026-04-23 19:49 23.15815 -109.71939 367 ft 18 kts 355°
2026-04-23 19:49 23.15887 -109.71864 364 ft 13 kts
2026-04-23 19:49 23.15933 -109.71869 364 ft 0 kts 352°
2026-04-23 19:50 23.15939 -109.71870 364 ft 6 kts 352°
2026-04-23 19:51 23.15997 -109.71877 365 ft 9 kts 354°
2026-04-23 19:51 23.16052 -109.71883 367 ft 7 kts 353°
2026-04-23 19:51 23.16071 -109.71879 366 ft 2 kts 33°
2026-04-23 19:51 23.16079 -109.71861 368 ft 4 kts 78°
2026-04-23 19:52 23.16082 -109.71840 366 ft 5 kts 84°
2026-04-23 19:52 23.16083 -109.71832 366 ft 0 kts 83°